Location: Dead Woman Crossing
(43.5369°N, 106.3228°W)
Time: 15:03:22
(UTC+00:00)

BEESAT 2 - Visible Passes

Search period start: 26 June 2022 00:00
Search period end: 06 July 2022 00:00
Orbit: 485 x 508 km, 64.9° (Epoch: 25 June)

Date Brightness Start Highest point End Pass type
(mag) Time Alt. Az. Time Alt. Az. Time Alt. Az.
26 Jun ? 04:40:53 10° NW 04:44:33 41° WSW 04:46:24 24° S visible
27 Jun ? 04:19:00 10° NW 04:22:44 46° WSW 04:25:16 18° S visible
28 Jun ? 03:57:07 10° NW 04:00:54 53° WSW 04:04:10 13° SSE visible
29 Jun ? 03:35:14 10° NW 03:39:03 61° WSW 03:42:50 10° SSE visible
04 Jul ? 03:25:22 10° W 03:26:12 11° WSW 03:27:01 10° WSW visible
